Time,TemperatureF,DewpointF,PressureIn,WindDirection,WindDirectionDegrees,WindSpeedMPH,WindSpeedGustMPH,Humidity,HourlyPrecipIn,Conditions,Clouds,dailyrainin,SoftwareType,DateUTC
2013-04-01 00:00:00,56.2,52.4,29.88,WNW,294,0.0,1.0,87,0.01,,SKC,0.00,VWS V14.01,2013-04-01 04:00:00,
2013-04-01 00:06:00,56.3,52.5,29.88,WNW,294,0.0,1.0,87,0.01,,SKC,0.00,VWS V14.01,2013-04-01 04:06:00,
2013-04-01 00:11:00,56.3,52.5,29.88,WNW,294,0.0,1.0,87,0.01,,SKC,0.00,VWS V14.01,2013-04-01 04:11:00,
2013-04-01 00:14:00,56.3,52.5,29.88,WNW,294,0.0,1.0,87,0.01,,SKC,0.00,VWS V14.01,2013-04-01 04:14:00,
2013-04-01 00:20:00,56.3,52.5,29.88,WNW,294,0.0,1.0,87,0.01,,SKC,0.00,VWS V14.01,2013-04-01 04:20:00,
2013-04-01 00:28:00,56.2,52.4,29.88,South,174,0.0,1.0,87,0.01,,SKC,0.00,VWS V14.01,2013-04-01 04:28:00,
2013-04-01 00:30:00,56.2,52.4,29.88,South,174,0.0,1.0,87,0.01,,SKC,0.00,VWS V14.01,2013-04-01 04:30:00,
2013-04-01 00:34:00,56.2,52.4,29.89,SW,228,0.0,0.0,87,0.01,,SKC,0.00,VWS V14.01,2013-04-01 04:34:00,
2013-04-01 00:39:00,56.2,52.4,29.89,SW,225,0.0,0.0,87,0.01,,SKC,0.00,VWS V14.01,2013-04-01 04:39:00,
2013-04-01 00:45:00,56.2,52.4,29.88,WNW,295,0.0,1.0,87,0.01,,SKC,0.00,VWS V14.01,2013-04-01 04:45:00,
2013-04-01 00:50:00,56.3,52.5,29.88,South,169,0.0,1.0,87,0.01,,SKC,0.00,VWS V14.01,2013-04-01 04:50:00,
2013-04-01 00:56:00,56.4,52.6,29.88,WSW,256,0.0,1.0,87,0.01,,SKC,0.00,VWS V14.01,2013-04-01 04:56:00,
2013-04-01 01:00:00,56.4,52.6,29.88,WSW,253,0.0,1.0,87,0.01,,SKC,0.00,VWS V14.01,2013-04-01 05:00:00,
2013-04-01 01:02:00,56.4,52.6,29.88,WSW,252,0.0,0.0,87,0.00,,SKC,0.00,VWS V14.01,2013-04-01 05:02:00,
2013-04-01 01:07:00,56.4,52.6,29.88,SSW,198,0.0,1.0,87,0.00,,SKC,0.00,VWS V14.01,2013-04-01 05:07:00,
2013-04-01 01:13:00,56.4,52.6,29.88,WSW,243,0.0,1.0,87,0.00,,SKC,0.00,VWS V14.01,2013-04-01 05:13:00,
2013-04-01 01:18:00,56.4,52.6,29.88,SW,233,0.0,2.0,87,0.00,,SKC,0.00,VWS V14.01,2013-04-01 05:18:00,
2013-04-01 01:29:00,56.3,52.5,29.88,West,276,0.0,2.0,87,0.00,,SKC,0.00,VWS V14.01,2013-04-01 05:29:00,
2013-04-01 01:30:00,56.3,52.5,29.88,West,276,0.0,2.0,87,0.00,,SKC,0.00,VWS V14.01,2013-04-01 05:30:00,
2013-04-01 01:35:00,56.2,52.4,29.88,West,275,0.0,0.0,87,0.00,,SKC,0.00,VWS V14.01,2013-04-01 05:35:00,
2013-04-01 01:47:00,55.9,52.1,29.88,West,276,0.0,0.0,87,0.00,,SKC,0.00,VWS V14.01,2013-04-01 05:47:00,
2013-04-01 01:53:00,55.9,51.8,29.87,West,270,0.0,0.0,86,0.00,,SKC,0.00,VWS V14.01,2013-04-01 05:53:00,
2013-04-01 01:58:00,55.8,51.7,29.87,West,270,0.0,0.0,86,0.00,,SKC,0.00,VWS V14.01,2013-04-01 05:58:00,
2013-04-01 02:00:00,55.8,51.7,29.87,West,269,0.0,0.0,86,0.00,,SKC,0.00,VWS V14.01,2013-04-01 06:00:00,
2013-04-01 02:04:00,55.7,51.6,29.87,West,270,0.0,0.0,86,0.00,,SKC,0.00,VWS V14.01,2013-04-01 06:04:00,
2013-04-01 02:09:00,55.6,51.5,29.87,West,269,0.0,0.0,86,0.00,,SKC,0.00,VWS V14.01,2013-04-01 06:09:00,
2013-04-01 02:14:00,55.5,51.1,29.87,West,270,0.0,0.0,85,0.00,,SKC,0.00,VWS V14.01,2013-04-01 06:14:00,
2013-04-01 02:20:00,55.5,51.1,29.87,SW,236,0.0,0.0,85,0.00,,SKC,0.00,VWS V14.01,2013-04-01 06:20:00,
2013-04-01 02:26:00,55.5,51.1,29.87,SW,236,0.0,0.0,85,0.00,,SKC,0.00,VWS V14.01,2013-04-01 06:26:00,
2013-04-01 02:30:00,55.5,51.1,29.87,SW,218,0.0,0.0,85,0.00,,SKC,0.00,VWS V14.01,2013-04-01 06:30:00,
2013-04-01 02:31:00,55.5,51.1,29.87,SW,218,0.0,0.0,85,0.00,,SKC,0.00,VWS V14.01,2013-04-01 06:31:00,
2013-04-01 02:37:00,55.4,51.0,29.87,SW,218,0.0,0.0,85,0.00,,SKC,0.00,VWS V14.01,2013-04-01 06:37:00,
2013-04-01 02:42:00,55.4,50.7,29.88,SW,217,0.0,0.0,84,0.01,,SKC,0.01,VWS V14.01,2013-04-01 06:42:00,
2013-04-01 02:48:00,55.4,51.0,29.88,SW,217,0.0,0.0,85,0.01,,SKC,0.01,VWS V14.01,2013-04-01 06:48:00,
2013-04-01 02:53:00,55.3,50.9,29.88,SW,217,0.0,0.0,85,0.01,,SKC,0.01,VWS V14.01,2013-04-01 06:53:00,
2013-04-01 02:59:00,55.2,50.8,29.88,SW,217,0.0,0.0,85,0.01,,SKC,0.01,VWS V14.01,2013-04-01 06:59:00,
2013-04-01 03:00:00,55.2,50.8,29.88,SW,217,0.0,0.0,85,0.01,,SKC,0.01,VWS V14.01,2013-04-01 07:00:00,
2013-04-01 03:04:00,55.2,50.8,29.88,SW,217,0.0,0.0,85,0.01,,SKC,0.01,VWS V14.01,2013-04-01 07:04:00,
2013-04-01 03:10:00,55.1,50.7,29.88,SW,217,0.0,0.0,85,0.01,,SKC,0.01,VWS V14.01,2013-04-01 07:10:00,
2013-04-01 03:15:00,55.1,50.4,29.87,SW,217,0.0,0.0,84,0.01,,SKC,0.01,VWS V14.01,2013-04-01 07:15:00,
2013-04-01 03:21:00,55.1,50.4,29.88,SW,217,0.0,0.0,84,0.01,,SKC,0.01,VWS V14.01,2013-04-01 07:21:00,
2013-04-01 03:27:00,55.0,50.3,29.88,SW,217,0.0,0.0,84,0.01,,SKC,0.01,VWS V14.01,2013-04-01 07:27:00,
2013-04-01 03:30:00,55.1,50.0,29.87,SW,217,0.0,0.0,83,0.01,,SKC,0.01,VWS V14.01,2013-04-01 07:30:00,
2013-04-01 03:32:00,55.1,50.0,29.87,SW,217,0.0,0.0,83,0.01,,SKC,0.01,VWS V14.01,2013-04-01 07:32:00,
2013-04-01 03:37:00,55.1,50.0,29.87,SW,217,0.0,0.0,83,0.01,,SKC,0.01,VWS V14.01,2013-04-01 07:37:00,
2013-04-01 03:43:00,55.2,49.8,29.87,SW,217,0.0,0.0,82,0.01,,SKC,0.01,VWS V14.01,2013-04-01 07:43:00,
2013-04-01 03:48:00,55.3,49.9,29.87,SW,217,0.0,0.0,82,0.01,,SKC,0.01,VWS V14.01,2013-04-01 07:48:00,
2013-04-01 03:54:00,55.3,49.9,29.87,SW,217,0.0,0.0,82,0.01,,SKC,0.01,VWS V14.01,2013-04-01 07:54:00,
2013-04-01 03:59:00,55.4,50.0,29.88,SW,217,0.0,0.0,82,0.01,,SKC,0.01,VWS V14.01,2013-04-01 07:59:00,
2013-04-01 04:00:00,55.4,50.0,29.88,SW,217,0.0,0.0,82,0.01,,SKC,0.01,VWS V14.01,2013-04-01 08:00:00,
2013-04-01 04:05:00,55.4,49.7,29.88,SW,217,0.0,0.0,81,0.00,,SKC,0.01,VWS V14.01,2013-04-01 08:05:00,
2013-04-01 04:10:00,55.4,50.0,29.88,SW,217,0.0,0.0,82,0.00,,SKC,0.01,VWS V14.01,2013-04-01 08:10:00,
2013-04-01 04:17:00,55.4,50.0,29.88,SW,217,0.0,0.0,82,0.00,,SKC,0.01,VWS V14.01,2013-04-01 08:17:00,
2013-04-01 04:23:00,55.4,50.0,29.88,SW,217,0.0,0.0,82,0.00,,SKC,0.01,VWS V14.01,2013-04-01 08:23:00,
2013-04-01 04:29:00,55.4,50.0,29.88,SW,217,0.0,0.0,82,0.00,,SKC,0.01,VWS V14.01,2013-04-01 08:29:00,
2013-04-01 04:30:00,55.4,50.0,29.88,SW,217,0.0,0.0,82,0.00,,SKC,0.01,VWS V14.01,2013-04-01 08:30:00,
2013-04-01 04:34:00,55.5,50.1,29.88,SW,217,0.0,0.0,82,0.00,,SKC,0.01,VWS V14.01,2013-04-01 08:34:00,
2013-04-01 04:40:00,55.4,50.3,29.88,SW,217,0.0,0.0,83,0.00,,SKC,0.01,VWS V14.01,2013-04-01 08:40:00,
2013-04-01 04:45:00,55.2,50.1,29.89,SW,217,0.0,0.0,83,0.00,,SKC,0.01,VWS V14.01,2013-04-01 08:45:00,
2013-04-01 04:51:00,55.0,49.9,29.88,SW,217,0.0,0.0,83,0.00,,SKC,0.01,VWS V14.01,2013-04-01 08:51:00,
2013-04-01 04:58:00,54.9,50.2,29.88,SW,217,0.0,0.0,84,0.00,,SKC,0.01,VWS V14.01,2013-04-01 08:58:00,
2013-04-01 05:00:00,54.8,50.1,29.88,SW,217,0.0,0.0,84,0.00,,SKC,0.01,VWS V14.01,2013-04-01 09:00:00,
2013-04-01 05:03:00,54.7,50.0,29.88,SW,217,0.0,0.0,84,0.00,,SKC,0.01,VWS V14.01,2013-04-01 09:03:00,
2013-04-01 05:09:00,54.4,50.0,29.88,SW,217,0.0,0.0,85,0.00,,SKC,0.01,VWS V14.01,2013-04-01 09:09:00,
2013-04-01 05:14:00,54.3,49.9,29.88,SW,217,0.0,0.0,85,0.00,,SKC,0.01,VWS V14.01,2013-04-01 09:14:00,
2013-04-01 05:20:00,54.3,49.9,29.88,SW,217,0.0,0.0,85,0.00,,SKC,0.01,VWS V14.01,2013-04-01 09:20:00,
2013-04-01 05:25:00,54.1,50.0,29.89,SW,217,0.0,0.0,86,0.00,,SKC,0.01,VWS V14.01,2013-04-01 09:25:00,
2013-04-01 05:30:00,54.0,49.9,29.89,SW,217,0.0,0.0,86,0.00,,SKC,0.01,VWS V14.01,2013-04-01 09:30:00,
2013-04-01 05:31:00,54.0,49.9,29.89,SW,217,0.0,0.0,86,0.00,,SKC,0.01,VWS V14.01,2013-04-01 09:31:00,
2013-04-01 05:36:00,53.8,50.0,29.89,SW,217,0.0,0.0,87,0.00,,SKC,0.01,VWS V14.01,2013-04-01 09:36:00,
2013-04-01 05:42:00,53.7,49.9,29.89,SW,217,0.0,0.0,87,0.00,,SKC,0.01,VWS V14.01,2013-04-01 09:42:00,
2013-04-01 05:49:00,53.5,49.7,29.89,SW,217,0.0,0.0,87,0.00,,SKC,0.01,VWS V14.01,2013-04-01 09:49:00,
2013-04-01 05:54:00,53.5,50.0,29.89,SW,217,0.0,0.0,88,0.00,,SKC,0.01,VWS V14.01,2013-04-01 09:54:00,
2013-04-01 06:00:00,53.5,50.0,29.89,SW,217,0.0,0.0,88,0.00,,SKC,0.01,VWS V14.01,2013-04-01 10:00:00,
2013-04-01 06:05:00,53.4,49.9,29.89,SW,217,0.0,0.0,88,0.00,,SKC,0.01,VWS V14.01,2013-04-01 10:05:00,
2013-04-01 06:11:00,53.3,49.8,29.89,SW,217,0.0,0.0,88,0.00,,SKC,0.01,VWS V14.01,2013-04-01 10:11:00,
2013-04-01 06:16:00,53.3,49.8,29.89,SW,217,0.0,0.0,88,0.00,,SKC,0.01,VWS V14.01,2013-04-01 10:16:00,
2013-04-01 06:22:00,53.2,49.4,29.89,SW,217,0.0,0.0,87,0.00,,SKC,0.01,VWS V14.01,2013-04-01 10:22:00,
2013-04-01 06:27:00,53.0,48.9,29.89,SW,217,0.0,0.0,86,0.00,,SKC,0.01,VWS V14.01,2013-04-01 10:27:00,
2013-04-01 06:30:00,52.9,48.8,29.89,SW,217,0.0,0.0,86,0.00,,SKC,0.01,VWS V14.01,2013-04-01 10:30:00,
2013-04-01 06:33:00,52.8,48.7,29.89,SW,217,0.0,0.0,86,0.00,,SKC,0.01,VWS V14.01,2013-04-01 10:33:00,
2013-04-01 06:38:00,52.5,48.8,29.90,SW,217,0.0,0.0,87,0.00,,SKC,0.01,VWS V14.01,2013-04-01 10:38:00,
2013-04-01 06:44:00,52.3,48.5,29.90,SW,217,0.0,0.0,87,0.00,,SKC,0.01,VWS V14.01,2013-04-01 10:44:00,
2013-04-01 06:49:00,52.2,48.5,29.90,SW,217,0.0,0.0,87,0.00,,SKC,0.01,VWS V14.01,2013-04-01 10:49:00,
2013-04-01 06:55:00,52.1,48.7,29.90,SW,217,0.0,0.0,88,0.00,,SKC,0.01,VWS V14.01,2013-04-01 10:55:00,
2013-04-01 07:00:00,52.0,48.6,29.90,SW,217,0.0,0.0,88,0.00,,SKC,0.01,VWS V14.01,2013-04-01 11:00:00,
2013-04-01 07:06:00,52.0,48.6,29.90,SW,217,0.0,0.0,88,0.00,,SKC,0.01,VWS V14.01,2013-04-01 11:06:00,
2013-04-01 07:11:00,52.0,48.6,29.91,SW,217,0.0,0.0,88,0.00,,SKC,0.01,VWS V14.01,2013-04-01 11:11:00,
2013-04-01 07:16:00,52.0,48.6,29.91,SW,217,0.0,0.0,88,0.00,,SKC,0.01,VWS V14.01,2013-04-01 11:16:00,
2013-04-01 07:22:00,51.9,48.2,29.91,SW,217,0.0,0.0,87,0.00,,SKC,0.01,VWS V14.01,2013-04-01 11:22:00,
2013-04-01 07:28:00,51.7,48.0,29.91,SW,217,0.0,0.0,87,0.00,,SKC,0.01,VWS V14.01,2013-04-01 11:28:00,
2013-04-01 07:30:00,51.6,47.9,29.91,SW,217,0.0,0.0,87,0.00,,SKC,0.01,VWS V14.01,2013-04-01 11:30:00,
2013-04-01 07:34:00,51.4,47.4,29.92,SW,217,0.0,0.0,86,0.00,,SKC,0.01,VWS V14.01,2013-04-01 11:34:00,
2013-04-01 07:39:00,51.0,47.0,29.92,SSW,205,0.0,0.0,86,0.00,,SKC,0.01,VWS V14.01,2013-04-01 11:39:00,
2013-04-01 07:45:00,50.8,47.1,29.92,SSW,205,0.0,0.0,87,0.00,,SKC,0.01,VWS V14.01,2013-04-01 11:45:00,
2013-04-01 07:51:00,50.6,46.9,29.93,SSW,205,0.0,0.0,87,0.00,,SKC,0.01,VWS V14.01,2013-04-01 11:51:00,
2013-04-01 07:58:00,50.7,46.0,29.93,SSE,155,0.0,0.0,84,0.00,,SKC,0.01,VWS V14.01,2013-04-01 11:58:00,
2013-04-01 08:00:00,50.8,46.2,29.93,SSE,155,0.0,0.0,84,0.00,,SKC,0.01,VWS V14.01,2013-04-01 12:00:00,
2013-04-01 08:03:00,51.4,46.4,29.93,SSE,155,0.0,0.0,83,0.00,,SKC,0.01,VWS V14.01,2013-04-01 12:03:00,
2013-04-01 08:08:00,52.8,47.8,29.93,SSE,155,0.0,0.0,83,0.00,,SKC,0.01,VWS V14.01,2013-04-01 12:08:00,
2013-04-01 08:15:00,54.9,47.8,29.94,SE,132,0.0,0.0,77,0.00,,SKC,0.01,VWS V14.01,2013-04-01 12:15:00,
2013-04-01 08:22:00,56.4,48.2,29.94,SE,132,0.0,1.0,74,0.00,,SKC,0.01,VWS V14.01,2013-04-01 12:22:00,
2013-04-01 08:28:00,57.0,48.1,29.94,SE,133,0.0,1.0,72,0.00,,SKC,0.01,VWS V14.01,2013-04-01 12:28:00,
2013-04-01 08:30:00,57.1,48.5,29.94,SE,132,0.0,1.0,73,0.00,,SKC,0.01,VWS V14.01,2013-04-01 12:30:00,
2013-04-01 08:34:00,57.4,48.1,29.94,SE,132,0.0,0.0,71,0.00,,SKC,0.01,VWS V14.01,2013-04-01 12:34:00,
2013-04-01 08:39:00,57.9,48.6,29.95,SE,130,0.0,1.0,71,0.00,,SKC,0.01,VWS V14.01,2013-04-01 12:39:00,
2013-04-01 08:45:00,58.2,48.1,29.95,SE,129,0.0,1.0,69,0.00,,SKC,0.01,VWS V14.01,2013-04-01 12:45:00,
2013-04-01 08:50:00,58.0,47.9,29.95,SE,129,0.0,1.0,69,0.00,,SKC,0.01,VWS V14.01,2013-04-01 12:50:00,
2013-04-01 08:56:00,58.0,47.5,29.95,ESE,108,0.0,1.0,68,0.00,,SKC,0.01,VWS V14.01,2013-04-01 12:56:00,
2013-04-01 09:00:00,58.0,47.9,29.95,ESE,108,0.0,1.0,69,0.00,,SKC,0.01,VWS V14.01,2013-04-01 13:00:00,
2013-04-01 09:03:00,58.3,48.6,29.95,ESE,107,0.0,0.0,70,0.00,,SKC,0.01,VWS V14.01,2013-04-01 13:03:00,
2013-04-01 09:08:00,59.1,47.8,29.95,ESE,113,0.0,1.0,66,0.00,,SKC,0.01,VWS V14.01,2013-04-01 13:08:00,
2013-04-01 09:14:00,59.5,47.7,29.96,ESE,113,0.0,1.0,65,0.00,,SKC,0.01,VWS V14.01,2013-04-01 13:14:00,
2013-04-01 09:19:00,60.1,47.5,29.95,ESE,103,0.0,1.0,63,0.00,,SKC,0.01,VWS V14.01,2013-04-01 13:19:00,
2013-04-01 09:25:00,60.3,47.2,29.95,East,101,0.0,1.0,62,0.00,,SKC,0.01,VWS V14.01,2013-04-01 13:25:00,
2013-04-01 09:30:00,60.8,45.0,29.95,East,79,0.0,0.0,56,0.00,,SKC,0.01,VWS V14.01,2013-04-01 13:30:00,
2013-04-01 09:37:00,60.9,42.2,29.95,East,96,0.0,3.0,50,0.00,,SKC,0.01,VWS V14.01,2013-04-01 13:37:00,
2013-04-01 09:43:00,61.7,41.8,29.95,West,278,0.0,3.0,48,0.00,,SKC,0.01,VWS V14.01,2013-04-01 13:43:00,
2013-04-01 09:49:00,62.5,43.1,29.95,WNW,285,1.0,3.0,49,0.00,,SKC,0.01,VWS V14.01,2013-04-01 13:49:00,
2013-04-01 09:54:00,63.2,42.1,29.95,East,89,0.0,3.0,46,0.00,,SKC,0.01,VWS V14.01,2013-04-01 13:54:00,
2013-04-01 09:59:00,64.6,43.9,29.95,East,87,1.0,3.0,47,0.00,,SKC,0.01,VWS V14.01,2013-04-01 13:59:00,
2013-04-01 10:00:00,64.6,43.9,29.95,East,87,1.0,3.0,47,0.00,,SKC,0.01,VWS V14.01,2013-04-01 14:00:00,
2013-04-01 10:05:00,65.1,42.1,29.95,West,267,0.0,1.0,43,0.00,,SKC,0.01,VWS V14.01,2013-04-01 14:05:00,
2013-04-01 10:11:00,65.9,42.8,29.95,SW,235,0.0,2.0,43,0.00,,SKC,0.01,VWS V14.01,2013-04-01 14:11:00,
2013-04-01 10:16:00,66.3,40.6,29.95,WSW,240,1.0,2.0,39,0.00,,SKC,0.01,VWS V14.01,2013-04-01 14:16:00,
2013-04-01 10:22:00,66.1,36.2,29.95,West,278,0.0,2.0,33,0.00,,SKC,0.01,VWS V14.01,2013-04-01 14:22:00,
2013-04-01 10:27:00,66.3,37.8,29.95,WNW,283,0.0,3.0,35,0.00,,SKC,0.01,VWS V14.01,2013-04-01 14:27:00,
2013-04-01 10:30:00,66.3,39.3,29.95,North,4,2.0,3.0,37,0.00,,SKC,0.01,VWS V14.01,2013-04-01 14:30:00,
2013-04-01 10:33:00,66.3,36.4,29.95,WNW,290,1.0,2.0,33,0.00,,SKC,0.01,VWS V14.01,2013-04-01 14:33:00,
2013-04-01 10:38:00,66.4,37.9,29.95,North,3,1.0,2.0,35,0.00,,SKC,0.01,VWS V14.01,2013-04-01 14:38:00,
2013-04-01 10:44:00,66.6,37.4,29.95,WNW,293,2.0,2.0,34,0.00,,SKC,0.01,VWS V14.01,2013-04-01 14:44:00,
2013-04-01 10:49:00,66.1,37.7,29.95,SE,142,1.0,2.0,35,0.00,,SKC,0.01,VWS V14.01,2013-04-01 14:49:00,
2013-04-01 10:55:00,66.6,37.4,29.95,West,281,0.0,3.0,34,0.00,,SKC,0.01,VWS V14.01,2013-04-01 14:55:00,
2013-04-01 11:00:00,66.2,37.0,29.96,SE,133,1.0,1.0,34,0.00,,SKC,0.01,VWS V14.01,2013-04-01 15:00:00,
2013-04-01 11:06:00,66.3,35.6,29.96,WNW,294,0.0,2.0,32,0.00,,SKC,0.01,VWS V14.01,2013-04-01 15:06:00,
2013-04-01 11:13:00,66.2,37.0,29.96,WSW,255,2.0,4.0,34,0.00,,SKC,0.01,VWS V14.01,2013-04-01 15:13:00,
2013-04-01 11:18:00,66.0,38.3,29.96,WNW,288,0.0,4.0,36,0.00,,SKC,0.01,VWS V14.01,2013-04-01 15:18:00,
2013-04-01 11:24:00,66.1,37.7,29.96,South,176,0.0,4.0,35,0.00,,SKC,0.01,VWS V14.01,2013-04-01 15:24:00,
2013-04-01 11:29:00,66.5,39.5,29.96,North,7,3.0,4.0,37,0.00,,SKC,0.01,VWS V14.01,2013-04-01 15:29:00,
2013-04-01 11:30:00,66.5,39.5,29.96,North,7,3.0,4.0,37,0.00,,SKC,0.01,VWS V14.01,2013-04-01 15:30:00,
2013-04-01 11:35:00,66.1,37.7,29.96,ENE,77,2.0,7.0,35,0.00,,SKC,0.01,VWS V14.01,2013-04-01 15:35:00,
2013-04-01 11:40:00,66.4,37.2,29.96,WSW,256,1.0,7.0,34,0.00,,SKC,0.01,VWS V14.01,2013-04-01 15:40:00,
2013-04-01 11:46:00,66.7,36.7,29.96,WNW,284,2.0,7.0,33,0.00,,SKC,0.01,VWS V14.01,2013-04-01 15:46:00,
2013-04-01 11:52:00,66.6,35.8,29.96,NW,323,0.0,7.0,32,0.00,,SKC,0.01,VWS V14.01,2013-04-01 15:52:00,
2013-04-01 11:57:00,67.1,40.0,29.96,WSW,255,0.0,7.0,37,0.00,,SKC,0.01,VWS V14.01,2013-04-01 15:57:00,
2013-04-01 12:00:00,67.2,37.2,29.96,NE,53,1.0,7.0,33,0.00,,SKC,0.01,VWS V14.01,2013-04-01 16:00:00,
2013-04-01 12:03:00,67.1,35.5,29.96,NW,309,0.0,5.0,31,0.00,,SKC,0.01,VWS V14.01,2013-04-01 16:03:00,
2013-04-01 12:08:00,67.0,36.2,29.96,West,260,2.0,5.0,32,0.00,,SKC,0.01,VWS V14.01,2013-04-01 16:08:00,
2013-04-01 12:14:00,67.1,39.3,29.96,East,96,1.0,5.0,36,0.00,,SKC,0.01,VWS V14.01,2013-04-01 16:14:00,
2013-04-01 12:19:00,67.5,36.6,29.96,West,276,0.0,5.0,32,0.00,,SKC,0.01,VWS V14.01,2013-04-01 16:19:00,
2013-04-01 12:25:00,67.9,37.0,29.95,WSW,249,2.0,5.0,32,0.00,,SKC,0.01,VWS V14.01,2013-04-01 16:25:00,
2013-04-01 12:30:00,68.1,36.3,29.95,WSW,252,0.0,2.0,31,0.00,,SKC,0.01,VWS V14.01,2013-04-01 16:30:00,
2013-04-01 12:36:00,67.9,37.0,29.95,West,274,2.0,4.0,32,0.00,,SKC,0.01,VWS V14.01,2013-04-01 16:36:00,
2013-04-01 12:41:00,67.5,38.2,29.95,WSW,255,1.0,4.0,34,0.00,,SKC,0.01,VWS V14.01,2013-04-01 16:41:00,
2013-04-01 12:46:00,67.4,35.7,29.95,NW,326,2.0,5.0,31,0.00,,SKC,0.01,VWS V14.01,2013-04-01 16:46:00,
2013-04-01 12:53:00,67.2,37.2,29.94,East,85,0.0,5.0,33,0.00,,SKC,0.01,VWS V14.01,2013-04-01 16:53:00,
2013-04-01 12:59:00,67.8,37.7,29.94,WNW,288,4.0,5.0,33,0.00,,SKC,0.01,VWS V14.01,2013-04-01 16:59:00,
2013-04-01 13:00:00,67.9,36.2,29.94,WNW,291,5.0,5.0,31,0.00,,SKC,0.01,VWS V14.01,2013-04-01 17:00:00,
2013-04-01 13:04:00,67.7,36.8,29.94,SSE,153,0.0,5.0,32,0.00,,SKC,0.01,VWS V14.01,2013-04-01 17:04:00,
2013-04-01 13:10:00,68.6,39.1,29.94,WNW,288,1.0,5.0,34,0.00,,SKC,0.01,VWS V14.01,2013-04-01 17:10:00,
2013-04-01 13:15:00,68.6,37.6,29.94,WNW,287,1.0,5.0,32,0.00,,SKC,0.01,VWS V14.01,2013-04-01 17:15:00,
2013-04-01 13:22:00,69.5,37.6,29.93,West,270,1.0,5.0,31,0.00,,SKC,0.01,VWS V14.01,2013-04-01 17:22:00,
2013-04-01 13:28:00,69.7,37.7,29.93,West,274,0.0,5.0,31,0.00,,SKC,0.01,VWS V14.01,2013-04-01 17:28:00,
2013-04-01 13:30:00,69.9,38.7,29.94,West,273,0.0,5.0,32,0.00,,SKC,0.01,VWS V14.01,2013-04-01 17:30:00,
2013-04-01 13:33:00,71.0,38.0,29.93,WNW,302,4.0,4.0,30,0.00,,SKC,0.01,VWS V14.01,2013-04-01 17:33:00,
2013-04-01 13:39:00,70.9,36.2,29.93,WNW,285,2.0,8.0,28,0.00,,SKC,0.01,VWS V14.01,2013-04-01 17:39:00,
2013-04-01 13:44:00,70.6,35.0,29.93,WSW,257,4.0,8.0,27,0.00,,SKC,0.01,VWS V14.01,2013-04-01 17:44:00,
2013-04-01 13:49:00,71.2,36.5,29.93,WSW,252,2.0,8.0,28,0.00,,SKC,0.01,VWS V14.01,2013-04-01 17:49:00,
2013-04-01 13:55:00,72.2,40.7,29.93,West,260,1.0,8.0,32,0.00,,SKC,0.01,VWS V14.01,2013-04-01 17:55:00,
2013-04-01 14:00:00,72.9,37.0,29.93,WNW,285,4.0,8.0,27,0.00,,SKC,0.01,VWS V14.01,2013-04-01 18:00:00,
2013-04-01 14:01:00,72.7,34.9,29.93,NW,314,5.0,6.0,25,0.00,,SKC,0.01,VWS V14.01,2013-04-01 18:01:00,
2013-04-01 14:06:00,71.7,36.9,29.92,NW,319,0.0,6.0,28,0.00,,SKC,0.01,VWS V14.01,2013-04-01 18:06:00,
2013-04-01 14:12:00,72.2,34.5,29.92,West,273,2.0,7.0,25,0.00,,SKC,0.01,VWS V14.01,2013-04-01 18:12:00,
2013-04-01 14:17:00,72.2,36.4,29.92,WSW,255,1.0,7.0,27,0.00,,SKC,0.01,VWS V14.01,2013-04-01 18:17:00,
2013-04-01 14:22:00,72.8,37.8,29.92,SSW,193,0.0,7.0,28,0.00,,SKC,0.01,VWS V14.01,2013-04-01 18:22:00,
2013-04-01 14:28:00,72.9,36.0,29.92,West,271,1.0,7.0,26,0.00,,SKC,0.01,VWS V14.01,2013-04-01 18:28:00,
2013-04-01 14:30:00,72.9,36.0,29.92,ESE,114,2.0,7.0,26,0.00,,SKC,0.01,VWS V14.01,2013-04-01 18:30:00,
2013-04-01 14:33:00,72.9,37.0,29.91,West,271,1.0,5.0,27,0.00,,SKC,0.01,VWS V14.01,2013-04-01 18:33:00,
2013-04-01 14:39:00,72.9,37.0,29.91,WSW,257,1.0,5.0,27,0.00,,SKC,0.01,VWS V14.01,2013-04-01 18:39:00,
2013-04-01 14:44:00,72.7,33.9,29.92,WNW,284,5.0,8.0,24,0.00,,SKC,0.01,VWS V14.01,2013-04-01 18:44:00,
2013-04-01 14:49:00,71.4,34.8,29.91,West,280,3.0,10.0,26,0.00,,SKC,0.01,VWS V14.01,2013-04-01 18:49:00,
2013-04-01 14:55:00,71.6,34.9,29.91,WNW,295,2.0,10.0,26,0.00,,SKC,0.01,VWS V14.01,2013-04-01 18:55:00,
2013-04-01 15:00:00,71.5,35.8,29.91,SSW,210,1.0,10.0,27,0.00,,SKC,0.01,VWS V14.01,2013-04-01 19:00:00,
2013-04-01 15:01:00,71.8,37.0,29.91,WNW,291,1.0,1.0,28,0.00,,SKC,0.01,VWS V14.01,2013-04-01 19:01:00,
2013-04-01 15:08:00,71.9,34.2,29.91,WNW,283,8.0,8.0,25,0.00,,SKC,0.01,VWS V14.01,2013-04-01 19:08:00,
2013-04-01 15:13:00,72.0,35.3,29.90,SSE,163,4.0,8.0,26,0.00,,SKC,0.01,VWS V14.01,2013-04-01 19:13:00,
2013-04-01 15:18:00,72.4,36.6,29.90,WSW,239,1.0,8.0,27,0.00,,SKC,0.01,VWS V14.01,2013-04-01 19:18:00,
2013-04-01 15:24:00,72.8,35.0,29.90,WNW,285,4.0,10.0,25,0.00,,SKC,0.01,VWS V14.01,2013-04-01 19:24:00,
2013-04-01 15:29:00,72.7,36.8,29.90,WSW,250,1.0,10.0,27,0.00,,SKC,0.01,VWS V14.01,2013-04-01 19:29:00,
2013-04-01 15:30:00,72.7,36.8,29.90,WSW,250,1.0,10.0,27,0.00,,SKC,0.01,VWS V14.01,2013-04-01 19:30:00,
2013-04-01 15:35:00,72.5,35.7,29.90,WNW,298,2.0,8.0,26,0.00,,SKC,0.01,VWS V14.01,2013-04-01 19:35:00,
2013-04-01 15:40:00,72.1,35.4,29.90,WNW,293,2.0,8.0,26,0.00,,SKC,0.01,VWS V14.01,2013-04-01 19:40:00,
2013-04-01 15:47:00,72.6,35.8,29.90,NW,325,5.0,8.0,26,0.00,,SKC,0.01,VWS V14.01,2013-04-01 19:47:00,
2013-04-01 15:53:00,72.4,35.6,29.90,WNW,288,1.0,10.0,26,0.00,,SKC,0.01,VWS V14.01,2013-04-01 19:53:00,
2013-04-01 15:58:00,72.3,34.5,29.90,NW,314,6.0,10.0,25,0.00,,SKC,0.01,VWS V14.01,2013-04-01 19:58:00,
2013-04-01 16:00:00,72.3,35.5,29.90,SW,232,1.0,10.0,26,0.00,,SKC,0.01,VWS V14.01,2013-04-01 20:00:00,
2013-04-01 16:04:00,72.1,35.4,29.90,West,278,5.0,14.0,26,0.00,,SKC,0.01,VWS V14.01,2013-04-01 20:04:00,
2013-04-01 16:09:00,72.1,36.3,29.90,WNW,293,10.0,14.0,27,0.00,,SKC,0.01,VWS V14.01,2013-04-01 20:09:00,
2013-04-01 16:14:00,71.8,35.1,29.90,WNW,290,2.0,14.0,26,0.00,,SKC,0.01,VWS V14.01,2013-04-01 20:14:00,
2013-04-01 16:20:00,72.1,37.2,29.91,WNW,288,3.0,14.0,28,0.00,,SKC,0.01,VWS V14.01,2013-04-01 20:20:00,
2013-04-01 16:26:00,71.7,36.0,29.90,West,262,7.0,14.0,27,0.00,,SKC,0.01,VWS V14.01,2013-04-01 20:26:00,
2013-04-01 16:30:00,71.7,35.0,29.91,NW,314,2.0,14.0,26,0.00,,SKC,0.01,VWS V14.01,2013-04-01 20:30:00,
2013-04-01 16:32:00,71.7,35.0,29.91,NW,323,4.0,12.0,26,0.00,,SKC,0.01,VWS V14.01,2013-04-01 20:32:00,
2013-04-01 16:38:00,72.0,34.3,29.91,NW,312,4.0,12.0,25,0.00,,SKC,0.01,VWS V14.01,2013-04-01 20:38:00,
2013-04-01 16:43:00,71.7,34.0,29.91,WNW,290,9.0,12.0,25,0.00,,SKC,0.01,VWS V14.01,2013-04-01 20:43:00,
2013-04-01 16:49:00,71.8,35.1,29.91,WNW,293,8.0,12.0,26,0.00,,SKC,0.01,VWS V14.01,2013-04-01 20:49:00,
2013-04-01 16:54:00,71.2,35.5,29.91,West,278,5.0,15.0,27,0.00,,SKC,0.01,VWS V14.01,2013-04-01 20:54:00,
2013-04-01 17:00:00,70.7,36.0,29.91,ESE,116,4.0,4.0,28,0.00,,SKC,0.01,VWS V14.01,2013-04-01 21:00:00,
2013-04-01 17:05:00,71.0,36.3,29.91,WNW,294,5.0,7.0,28,0.00,,SKC,0.01,VWS V14.01,2013-04-01 21:05:00,
2013-04-01 17:12:00,70.9,36.2,29.91,NW,305,4.0,8.0,28,0.00,,SKC,0.01,VWS V14.01,2013-04-01 21:12:00,
2013-04-01 17:18:00,70.5,36.7,29.91,West,274,5.0,8.0,29,0.00,,SKC,0.01,VWS V14.01,2013-04-01 21:18:00,
2013-04-01 17:23:00,70.3,36.6,29.91,WNW,285,2.0,9.0,29,0.00,,SKC,0.01,VWS V14.01,2013-04-01 21:23:00,
2013-04-01 17:29:00,70.2,36.5,29.91,West,280,1.0,9.0,29,0.00,,SKC,0.01,VWS V14.01,2013-04-01 21:29:00,
2013-04-01 17:30:00,70.2,36.5,29.91,West,279,0.0,9.0,29,0.00,,SKC,0.01,VWS V14.01,2013-04-01 21:30:00,
2013-04-01 17:34:00,70.2,36.5,29.91,West,259,2.0,3.0,29,0.00,,SKC,0.01,VWS V14.01,2013-04-01 21:34:00,
2013-04-01 17:40:00,70.3,36.6,29.92,East,91,0.0,3.0,29,0.00,,SKC,0.01,VWS V14.01,2013-04-01 21:40:00,
2013-04-01 17:45:00,70.0,35.4,29.91,SW,232,0.0,3.0,28,0.00,,SKC,0.01,VWS V14.01,2013-04-01 21:45:00,
2013-04-01 17:51:00,69.8,37.0,29.91,North,5,1.0,3.0,30,0.00,,SKC,0.01,VWS V14.01,2013-04-01 21:51:00,
2013-04-01 17:56:00,69.6,36.8,29.92,NNW,340,0.0,9.0,30,0.00,,SKC,0.01,VWS V14.01,2013-04-01 21:56:00,
2013-04-01 18:00:00,69.4,36.7,29.92,NW,316,2.0,9.0,30,0.00,,SKC,0.01,VWS V14.01,2013-04-01 22:00:00,
2013-04-01 18:02:00,69.2,36.5,29.92,East,101,0.0,5.0,30,0.00,,SKC,0.01,VWS V14.01,2013-04-01 22:02:00,
2013-04-01 18:07:00,68.8,37.0,29.92,West,276,0.0,5.0,31,0.00,,SKC,0.01,VWS V14.01,2013-04-01 22:07:00,
2013-04-01 18:12:00,68.8,38.5,29.92,West,271,0.0,5.0,33,0.00,,SKC,0.01,VWS V14.01,2013-04-01 22:12:00,
2013-04-01 18:19:00,69.3,39.0,29.92,East,79,1.0,5.0,33,0.00,,SKC,0.01,VWS V14.01,2013-04-01 22:19:00,
2013-04-01 18:25:00,69.3,37.4,29.92,West,278,0.0,5.0,31,0.00,,SKC,0.01,VWS V14.01,2013-04-01 22:25:00,
2013-04-01 18:30:00,69.2,37.3,29.93,North,360,2.0,2.0,31,0.00,,SKC,0.01,VWS V14.01,2013-04-01 22:30:00,
2013-04-01 18:36:00,68.6,36.8,29.92,WNW,284,0.0,3.0,31,0.00,,SKC,0.01,VWS V14.01,2013-04-01 22:36:00,
2013-04-01 18:43:00,68.5,38.3,29.93,East,90,0.0,4.0,33,0.00,,SKC,0.01,VWS V14.01,2013-04-01 22:43:00,
2013-04-01 18:50:00,68.6,38.4,29.93,ENE,72,2.0,4.0,33,0.00,,SKC,0.01,VWS V14.01,2013-04-01 22:50:00,
2013-04-01 18:55:00,68.5,37.5,29.93,WNW,285,1.0,5.0,32,0.00,,SKC,0.01,VWS V14.01,2013-04-01 22:55:00,
2013-04-01 19:00:00,68.4,37.4,29.93,NW,309,1.0,5.0,32,0.00,,SKC,0.01,VWS V14.01,2013-04-01 23:00:00,
2013-04-01 19:01:00,68.3,37.3,29.93,WNW,287,1.0,3.0,32,0.00,,SKC,0.01,VWS V14.01,2013-04-01 23:01:00,
2013-04-01 19:06:00,67.7,37.6,29.93,WNW,291,1.0,6.0,33,0.00,,SKC,0.01,VWS V14.01,2013-04-01 23:06:00,
2013-04-01 19:12:00,66.9,37.7,29.93,WNW,295,3.0,6.0,34,0.00,,SKC,0.01,VWS V14.01,2013-04-01 23:12:00,
2013-04-01 19:17:00,66.2,37.8,29.93,WNW,283,2.0,6.0,35,0.00,,SKC,0.01,VWS V14.01,2013-04-01 23:17:00,
2013-04-01 19:23:00,65.5,37.9,29.93,NW,304,0.0,6.0,36,0.00,,SKC,0.01,VWS V14.01,2013-04-01 23:23:00,
2013-04-01 19:28:00,64.9,37.3,29.94,West,266,4.0,6.0,36,0.00,,SKC,0.01,VWS V14.01,2013-04-01 23:28:00,
2013-04-01 19:30:00,64.8,36.5,29.94,NNW,341,1.0,6.0,35,0.00,,SKC,0.01,VWS V14.01,2013-04-01 23:30:00,
2013-04-01 19:34:00,64.5,37.0,29.94,WNW,298,0.0,4.0,36,0.00,,SKC,0.01,VWS V14.01,2013-04-01 23:34:00,
2013-04-01 19:39:00,64.0,37.2,29.94,East,90,0.0,4.0,37,0.00,,SKC,0.01,VWS V14.01,2013-04-01 23:39:00,
2013-04-01 19:45:00,63.6,36.9,29.94,SW,233,0.0,4.0,37,0.00,,SKC,0.01,VWS V14.01,2013-04-01 23:45:00,
2013-04-01 19:50:00,63.2,37.2,29.94,WNW,288,3.0,4.0,38,0.00,,SKC,0.01,VWS V14.01,2013-04-01 23:50:00,
2013-04-01 19:55:00,62.8,36.8,29.94,WNW,300,0.0,4.0,38,0.00,,SKC,0.01,VWS V14.01,2013-04-01 23:55:00,
2013-04-01 20:00:00,62.6,36.7,29.94,WNW,285,0.0,5.0,38,0.00,,SKC,0.01,VWS V14.01,2013-04-02 00:00:00,
2013-04-01 20:01:00,62.5,37.2,29.94,WNW,285,0.0,0.0,39,0.00,,SKC,0.01,VWS V14.01,2013-04-02 00:01:00,
2013-04-01 20:07:00,62.2,37.6,29.94,WNW,302,0.0,2.0,40,0.00,,SKC,0.01,VWS V14.01,2013-04-02 00:07:00,
2013-04-01 20:12:00,61.6,37.1,29.94,West,277,0.0,2.0,40,0.00,,SKC,0.01,VWS V14.01,2013-04-02 00:12:00,
2013-04-01 20:18:00,61.1,36.6,29.94,West,280,0.0,2.0,40,0.00,,SKC,0.01,VWS V14.01,2013-04-02 00:18:00,
2013-04-01 20:23:00,60.9,37.1,29.95,WNW,284,0.0,2.0,41,0.00,,SKC,0.01,VWS V14.01,2013-04-02 00:23:00,
2013-04-01 20:28:00,60.4,37.2,29.95,WNW,284,0.0,2.0,42,0.00,,SKC,0.01,VWS V14.01,2013-04-02 00:28:00,
2013-04-01 20:30:00,60.4,37.2,29.95,WNW,284,0.0,2.0,42,0.00,,SKC,0.01,VWS V14.01,2013-04-02 00:30:00,
2013-04-01 20:34:00,60.0,37.5,29.95,West,262,0.0,0.0,43,0.00,,SKC,0.01,VWS V14.01,2013-04-02 00:34:00,
2013-04-01 20:39:00,59.7,37.8,29.95,West,262,0.0,0.0,44,0.00,,SKC,0.01,VWS V14.01,2013-04-02 00:39:00,
2013-04-01 20:45:00,59.4,36.9,29.95,West,281,0.0,0.0,43,0.00,,SKC,0.01,VWS V14.01,2013-04-02 00:45:00,
2013-04-01 20:50:00,59.1,37.8,29.95,West,281,0.0,0.0,45,0.00,,SKC,0.01,VWS V14.01,2013-04-02 00:50:00,
2013-04-01 20:56:00,58.8,37.0,29.95,WNW,288,0.0,0.0,44,0.00,,SKC,0.01,VWS V14.01,2013-04-02 00:56:00,
2013-04-01 21:00:00,58.9,37.0,29.95,West,271,0.0,1.0,44,0.00,,SKC,0.01,VWS V14.01,2013-04-02 01:00:00,
2013-04-01 21:01:00,58.9,37.6,29.95,West,271,0.0,0.0,45,0.00,,SKC,0.01,VWS V14.01,2013-04-02 01:01:00,
2013-04-01 21:08:00,58.5,37.8,29.95,West,271,0.0,0.0,46,0.00,,SKC,0.01,VWS V14.01,2013-04-02 01:08:00,
2013-04-01 21:14:00,58.4,37.2,29.96,West,271,0.0,0.0,45,0.00,,SKC,0.01,VWS V14.01,2013-04-02 01:14:00,
2013-04-01 21:19:00,58.1,36.9,29.96,West,271,0.0,0.0,45,0.00,,SKC,0.01,VWS V14.01,2013-04-02 01:19:00,
2013-04-01 21:25:00,58.1,36.3,29.96,West,260,0.0,2.0,44,0.00,,SKC,0.01,VWS V14.01,2013-04-02 01:25:00,
2013-04-01 21:30:00,58.3,36.5,29.97,WNW,291,0.0,0.0,44,0.00,,SKC,0.01,VWS V14.01,2013-04-02 01:30:00,
2013-04-01 21:35:00,58.1,36.9,29.97,WNW,291,0.0,0.0,45,0.00,,SKC,0.01,VWS V14.01,2013-04-02 01:35:00,
2013-04-01 21:41:00,57.9,36.7,29.97,WNW,293,0.0,1.0,45,0.00,,SKC,0.01,VWS V14.01,2013-04-02 01:41:00,
2013-04-01 21:48:00,57.5,36.9,29.98,WNW,300,0.0,1.0,46,0.00,,SKC,0.01,VWS V14.01,2013-04-02 01:48:00,
2013-04-01 21:53:00,57.4,36.2,29.98,WNW,289,1.0,1.0,45,0.00,,SKC,0.01,VWS V14.01,2013-04-02 01:53:00,
2013-04-01 21:59:00,57.4,37.3,29.98,WNW,290,1.0,1.0,47,0.00,,SKC,0.01,VWS V14.01,2013-04-02 01:59:00,
2013-04-01 22:00:00,57.4,36.8,29.98,WNW,291,0.0,1.0,46,0.00,,SKC,0.01,VWS V14.01,2013-04-02 02:00:00,
2013-04-01 22:04:00,57.1,36.5,29.98,WNW,286,1.0,1.0,46,0.00,,SKC,0.01,VWS V14.01,2013-04-02 02:04:00,
2013-04-01 22:10:00,57.1,37.1,29.98,WNW,298,0.0,1.0,47,0.00,,SKC,0.01,VWS V14.01,2013-04-02 02:10:00,
2013-04-01 22:15:00,56.7,36.7,29.98,WNW,298,0.0,1.0,47,0.00,,SKC,0.01,VWS V14.01,2013-04-02 02:15:00,
2013-04-01 22:22:00,56.2,36.8,29.99,WNW,297,0.0,1.0,48,0.00,,SKC,0.01,VWS V14.01,2013-04-02 02:22:00,
2013-04-01 22:28:00,56.0,37.1,29.99,West,277,1.0,2.0,49,0.00,,SKC,0.01,VWS V14.01,2013-04-02 02:28:00,
2013-04-01 22:30:00,56.0,36.1,29.99,West,279,0.0,2.0,47,0.00,,SKC,0.01,VWS V14.01,2013-04-02 02:30:00,
2013-04-01 22:33:00,56.0,36.6,29.99,NW,304,0.0,1.0,48,0.00,,SKC,0.01,VWS V14.01,2013-04-02 02:33:00,
2013-04-01 22:39:00,55.9,36.5,29.99,West,274,1.0,3.0,48,0.00,,SKC,0.01,VWS V14.01,2013-04-02 02:39:00,
2013-04-01 22:44:00,55.9,36.0,29.99,WNW,300,0.0,3.0,47,0.00,,SKC,0.01,VWS V14.01,2013-04-02 02:44:00,
2013-04-01 22:50:00,55.9,34.3,29.99,West,278,1.0,4.0,44,0.00,,SKC,0.01,VWS V14.01,2013-04-02 02:50:00,
2013-04-01 22:55:00,56.3,34.1,29.99,SW,221,0.0,4.0,43,0.00,,SKC,0.01,VWS V14.01,2013-04-02 02:55:00,
2013-04-01 23:00:00,56.5,33.7,30.00,WNW,294,2.0,4.0,42,0.00,,SKC,0.01,VWS V14.01,2013-04-02 03:00:00,
2013-04-01 23:02:00,56.6,33.8,30.00,East,95,0.0,2.0,42,0.00,,SKC,0.01,VWS V14.01,2013-04-02 03:02:00,
2013-04-01 23:08:00,56.8,34.0,30.00,NW,322,0.0,2.0,42,0.00,,SKC,0.01,VWS V14.01,2013-04-02 03:08:00,
2013-04-01 23:13:00,56.8,33.4,30.00,NW,311,0.0,4.0,41,0.00,,SKC,0.01,VWS V14.01,2013-04-02 03:13:00,
2013-04-01 23:18:00,56.8,33.4,30.00,WSW,249,0.0,4.0,41,0.00,,SKC,0.01,VWS V14.01,2013-04-02 03:18:00,
2013-04-01 23:24:00,56.8,32.8,30.00,East,101,1.0,4.0,40,0.00,,SKC,0.01,VWS V14.01,2013-04-02 03:24:00,
2013-04-01 23:29:00,56.9,32.8,30.00,WNW,285,5.0,5.0,40,0.00,,SKC,0.01,VWS V14.01,2013-04-02 03:29:00,
2013-04-01 23:30:00,56.9,32.8,30.00,WNW,285,5.0,5.0,40,0.00,,SKC,0.01,VWS V14.01,2013-04-02 03:30:00,
2013-04-01 23:35:00,56.8,32.8,30.00,SW,227,0.0,5.0,40,0.00,,SKC,0.01,VWS V14.01,2013-04-02 03:35:00,
2013-04-01 23:40:00,56.6,33.2,30.00,WNW,300,0.0,5.0,41,0.00,,SKC,0.01,VWS V14.01,2013-04-02 03:40:00,
2013-04-01 23:46:00,56.6,33.2,30.00,East,101,0.0,5.0,41,0.00,,SKC,0.01,VWS V14.01,2013-04-02 03:46:00,
2013-04-01 23:51:00,56.5,33.7,30.00,SW,236,0.0,5.0,42,0.00,,SKC,0.01,VWS V14.01,2013-04-02 03:51:00,
2013-04-01 23:57:00,56.4,33.6,30.00,WNW,289,1.0,5.0,42,0.00,,SKC,0.01,VWS V14.01,2013-04-02 03:57:00,